Location: Limerick
(52.6800°N, 8.6400°W)
Time: 22:31:10
(UTC+01:00)

Sapphire - Visible Passes

Search period start: 26 April 2017 00:00
Search period end: 06 May 2017 00:00
Orbit: 785 x 797 km, 67.1° (Epoch: 25 April)

Date Brightness Start Highest point End Pass type
(mag) Time Alt. Az. Time Alt. Az. Time Alt. Az.
26 Apr ? 02:24:56 10° ESE 02:26:08 11° E 02:27:21 10° E visible
26 Apr ? 04:05:03 22° S 04:08:24 56° ESE 04:13:44 10° NE visible
27 Apr ? 03:35:11 25° S 03:37:49 44° ESE 03:42:59 10° NE visible
27 Apr ? 05:16:02 10° WSW 05:21:16 47° NW 05:26:33 10° NNE visible
28 Apr ? 03:05:16 26° SSE 03:07:17 34° ESE 03:12:09 10° NE visible
28 Apr ? 04:45:59 15° WSW 04:50:30 57° NW 04:55:54 10° NE visible
29 Apr ? 02:35:19 24° SE 02:36:46 27° ESE 02:41:15 10° NE visible
29 Apr ? 04:16:02 21° SW 04:19:46 70° NW 04:25:15 10° NE visible
30 Apr ? 02:05:21 20° ESE 02:06:18 21° ESE 02:10:15 10° ENE visible
30 Apr ? 03:46:03 27° SW 03:49:05 86° NW 03:54:35 10° NE visible
01 May ? 01:35:19 16° ESE 01:35:52 16° ESE 01:39:01 10° ENE visible
01 May ? 03:16:02 34° SSW 03:18:25 76° SE 03:23:53 10° NE visible
01 May ? 04:57:28 10° W 05:02:21 32° NNW 05:07:16 10° NNE visible
02 May ? 01:05:16 12° ESE 01:05:28 12° ESE 01:07:17 10° E visible
02 May ? 02:45:59 39° S 02:47:47 60° ESE 02:53:10 10° NE visible
02 May ? 04:26:41 11° WSW 04:31:31 38° NW 04:36:36 10° NNE visible
03 May ? 02:15:53 39° SSE 02:17:12 47° ESE 02:22:24 10° NE visible
03 May ? 03:56:35 16° WSW 04:00:42 45° NW 04:05:57 10° NNE visible
04 May ? 01:45:45 34° SE 01:46:39 36° ESE 01:51:36 10° NE visible
04 May ? 03:26:27 21° WSW 03:29:56 54° NW 03:35:18 10° NE visible
04 May ? 05:10:18 10° WNW 05:14:31 22° NNW 05:18:45 10° NNE visible
05 May ? 01:15:34 28° ESE 01:16:08 28° ESE 01:20:43 10° NE visible
05 May ? 02:56:16 28° WSW 02:59:11 67° NW 03:04:39 10° NE visible
05 May ? 04:39:10 10° WNW 04:43:35 24° NNW 04:48:02 10° NNE visible
